�N����,����,�~����,�C��,���x,�C��,����,���ϕ���,�ő�u�ԕ���,�ő厞����,���˗�,�I�_���x,�n�����x,�ő啗���N��,DTYPE
"19/11/15","00:10",0.0,7.4,81.8,1013.5,303.1,2.3,4.3,307.6,0.00,4.5,12.8,"00:05:36",1
"19/11/15","00:20",0.0,7.4,81.7,1013.8,303.4,2.3,4.5,343.0,0.00,4.5,12.8,"00:19:30",1
"19/11/15","00:30",0.0,7.4,81.7,1013.8,300.2,2.5,3.9,301.3,0.00,4.5,12.8,"00:22:24",1
"19/11/15","00:40",0.0,7.2,81.9,1013.5,306.8,2.3,5.7,340.2,0.00,4.4,12.8,"00:38:48",1
"19/11/15","00:50",0.0,7.4,81.8,1013.8,318.8,2.8,4.9,326.9,0.00,4.5,12.7,"00:40:24",1
"19/11/15","01:00",0.0,7.4,81.8,1013.8,322.8,2.8,5.2,330.1,0.00,4.5,12.5,"00:56:02",1
"19/11/15","01:10",0.0,7.3,81.9,1014.0,326.0,2.8,6.0,333.7,0.00,4.5,12.6,"01:08:00",1
"19/11/15","01:20",0.0,7.4,81.9,1013.5,327.5,3.4,5.7,336.5,0.00,4.6,12.6,"01:10:48",1
"19/11/15","01:30",0.0,7.5,81.8,1013.8,323.4,3.4,8.5,330.3,0.00,4.6,12.5,"01:24:24",1
"19/11/15","01:40",0.0,7.4,81.7,1014.0,335.7,2.2,5.8,330.9,0.00,4.5,12.6,"01:31:36",1
"19/11/15","01:50",0.0,7.2,81.6,1013.8,331.6,1.5,2.4,310.2,0.00,4.3,12.7,"01:45:20",1
"19/11/15","02:00",0.0,7.1,81.8,1013.8,2.1,1.0,2.5,340.6,0.00,4.2,12.3,"01:52:40",1
"19/11/15","02:10",0.0,6.8,82.3,1013.8,12.3,0.5,1.4,12.5,0.00,4.0,12.4,"02:06:08",1
"19/11/15","02:20",0.0,6.7,82.9,1014.0,2.4,0.8,1.7,328.8,0.00,4.0,12.2,"02:13:44",1
"19/11/15","02:30",0.0,6.2,83.4,1013.8,342.0,1.1,2.5,343.6,0.00,3.6,12.5,"02:22:08",1
"19/11/15","02:40",0.0,5.6,84.1,1013.8,325.5,1.1,2.5,314.3,0.00,3.2,12.2,"02:30:52",1
"19/11/15","02:50",0.0,5.9,85.1,1013.8,338.2,1.1,1.9,318.4,0.00,3.6,12.3,"02:47:24",1
"19/11/15","03:00",0.0,6.2,85.6,1013.8,341.3,1.1,1.9,326.0,0.00,4.0,12.1,"02:51:04",1
"19/11/15","03:10",0.0,6.0,86.1,1013.8,341.4,1.3,2.2,88.9,0.00,3.9,12.1,"03:08:00",1
"19/11/15","03:20",0.0,5.6,86.5,1014.0,332.1,1.2,2.0,324.9,0.00,3.6,12.0,"03:12:44",1
"19/11/15","03:30",0.0,5.6,86.9,1013.5,337.9,1.2,2.2,311.3,0.00,3.6,11.9,"03:26:36",1
"19/11/15","03:40",0.0,5.2,87.2,1013.8,317.8,1.3,2.1,325.7,0.00,3.3,12.1,"03:30:48",1
"19/11/15","03:50",0.0,4.8,87.6,1013.8,315.8,1.3,2.1,324.8,0.00,3.0,11.8,"03:41:24",1
"19/11/15","04:00",0.0,4.3,88.2,1013.8,285.3,1.0,2.1,315.1,0.00,2.6,11.8,"03:50:16",1
"19/11/15","04:10",0.0,4.2,88.7,1014.0,329.9,1.6,2.4,327.7,0.00,2.5,11.9,"04:05:14",1
"19/11/15","04:20",0.0,4.1,89.2,1013.8,320.8,1.6,2.0,308.5,0.00,2.5,11.9,"04:11:10",1
"19/11/15","04:30",0.0,4.1,89.7,1013.8,316.4,1.5,1.9,316.9,0.00,2.6,11.7,"04:20:08",1
"19/11/15","04:40",0.0,4.2,89.9,1014.0,320.0,1.5,2.5,323.0,0.00,2.7,11.9,"04:36:42",1
"19/11/15","04:50",0.0,3.9,90.3,1014.0,299.3,0.8,1.6,306.2,0.00,2.5,11.7,"04:43:12",1
"19/11/15","05:00",0.0,3.6,91.1,1014.0,293.2,1.3,2.1,324.0,0.00,2.3,11.7,"04:56:32",1
"19/11/15","05:10",0.0,4.1,91.2,1014.0,300.0,2.0,3.2,324.3,0.00,2.8,11.6,"05:02:08",1
"19/11/15","05:20",0.0,4.2,91.5,1014.2,294.9,1.2,1.6,292.5,0.00,3.0,11.4,"05:12:34",1
"19/11/15","05:30",0.0,3.9,91.6,1013.8,291.7,1.0,1.4,281.7,0.00,2.7,11.4,"05:27:30",1
"19/11/15","05:40",0.0,3.5,91.9,1013.8,299.1,1.2,1.7,301.8,0.00,2.3,11.4,"05:34:06",1
"19/11/15","05:50",0.0,3.4,92.3,1014.5,309.9,1.6,2.4,321.9,0.00,2.3,11.4,"05:40:48",1
"19/11/15","06:00",0.0,3.3,92.7,1014.0,314.7,1.8,2.7,325.8,0.00,2.3,11.3,"05:51:44",1
"19/11/15","06:10",0.0,3.1,92.9,1014.0,304.2,1.6,2.1,316.5,0.00,2.1,11.4,"06:07:36",1
"19/11/15","06:20",0.0,2.7,93.0,1014.0,295.6,1.5,1.8,312.5,0.00,1.7,11.4,"06:10:48",1
"19/11/15","06:30",0.0,2.7,93.4,1014.0,299.3,1.6,2.1,313.9,0.00,1.8,11.2,"06:22:16",1
"19/11/15","06:40",0.0,2.6,93.5,1014.5,292.1,1.2,2.0,314.1,0.00,1.7,11.1,"06:35:52",1
"19/11/15","06:50",0.0,2.4,93.7,1014.0,298.1,1.5,1.9,314.4,0.00,1.5,11.2,"06:46:08",1
"19/11/15","07:00",0.0,2.2,93.8,1014.5,295.0,1.1,2.0,318.6,0.00,1.3,11.0,"06:50:40",1
"19/11/15","07:10",0.0,2.3,94.1,1014.2,289.2,1.3,1.8,307.0,0.00,1.5,11.0,"07:03:28",1
"19/11/15","07:20",0.0,2.7,94.3,1014.5,299.5,1.7,2.7,313.7,0.00,1.9,11.0,"07:19:20",1
"19/11/15","07:30",0.0,3.0,94.2,1014.2,288.0,1.6,2.1,317.1,0.00,2.2,11.1,"07:20:08",1
"19/11/15","07:40",0.0,3.1,94.4,1014.5,303.9,1.8,2.5,316.9,0.00,2.3,10.9,"07:32:00",1
"19/11/15","07:50",0.0,3.7,94.6,1014.7,272.5,0.5,1.6,304.6,0.00,3.0,10.9,"07:41:04",1
"19/11/15","08:00",0.0,4.4,94.5,1014.9,241.8,0.3,1.0,274.7,0.01,3.6,11.0,"07:58:42",1
"19/11/15","08:10",0.0,5.2,94.6,1014.7,287.1,1.1,2.5,318.5,0.02,4.4,10.9,"08:05:14",1
"19/11/15","08:20",0.0,6.1,94.5,1015.2,309.1,1.2,2.2,320.9,0.03,5.3,11.0,"08:16:24",1
"19/11/15","08:30",0.0,6.9,94.5,1015.6,314.5,1.3,2.2,322.9,0.04,6.1,11.1,"08:28:16",1
"19/11/15","08:40",0.0,7.5,94.3,1016.1,317.6,0.8,1.6,316.3,0.06,6.7,11.2,"08:30:16",1
"19/11/15","08:50",0.0,7.9,94.1,1016.4,285.6,0.7,1.6,272.2,0.08,7.1,11.2,"08:43:36",1
"19/11/15","09:00",0.0,8.1,94.0,1015.9,242.2,0.7,1.3,146.9,0.12,7.2,11.1,"08:59:20",1
"19/11/15","09:10",0.0,8.7,93.5,1016.4,267.5,0.7,1.2,244.6,0.15,7.8,11.3,"09:02:32",1
"19/11/15","09:20",0.0,9.0,93.1,1016.6,251.5,0.7,1.3,267.8,0.18,8.0,11.6,"09:17:28",1
"19/11/15","09:30",0.0,9.2,91.6,1016.6,257.4,0.7,1.2,257.6,0.20,7.9,11.6,"09:28:32",1
"19/11/15","09:40",0.0,9.7,90.5,1017.1,264.5,0.7,1.2,258.7,0.23,8.3,12.1,"09:32:24",1
"19/11/15","09:50",0.0,9.9,89.4,1017.1,172.0,0.5,1.3,116.5,0.25,8.3,11.9,"09:41:04",1
"19/11/15","10:00",0.0,9.8,87.1,1017.3,209.2,1.0,2.2,231.1,0.27,7.8,12.3,"09:58:24",1
"19/11/15","10:10",0.0,10.8,83.1,1016.8,219.7,1.1,2.7,215.6,0.29,8.1,12.4,"10:00:40",1
"19/11/15","10:20",0.0,11.3,78.4,1017.1,220.7,1.2,2.4,226.0,0.31,7.7,12.7,"10:17:12",1
"19/11/15","10:30",0.0,12.0,73.4,1017.1,230.1,0.7,2.2,236.5,0.33,7.4,12.9,"10:20:08",1
"19/11/15","10:40",0.0,12.1,69.4,1017.1,183.1,1.3,4.1,236.8,0.35,6.7,13.1,"10:38:32",1
"19/11/15","10:50",0.0,12.6,67.0,1016.8,245.6,2.0,3.9,220.8,0.37,6.7,13.4,"10:42:16",1
"19/11/15","11:00",0.0,12.6,65.1,1016.8,244.0,2.5,4.2,221.4,0.39,6.3,13.6,"10:53:52",1
"19/11/15","11:10",0.0,12.9,64.2,1016.6,245.4,2.5,6.4,225.2,0.41,6.3,13.6,"11:04:56",1
"19/11/15","11:20",0.0,13.4,62.4,1016.4,297.6,2.0,4.1,303.0,0.42,6.4,14.0,"11:19:20",1
"19/11/15","11:30",0.0,14.0,61.3,1016.4,275.7,1.5,3.6,254.3,0.44,6.7,14.2,"11:21:20",1
"19/11/15","11:40",0.0,13.6,60.0,1016.1,241.6,2.3,5.2,229.5,0.45,6.0,14.3,"11:39:04",1
"19/11/15","11:50",0.0,13.6,61.9,1016.1,234.7,3.0,6.7,209.8,0.47,6.5,14.2,"11:42:32",1
"19/11/15","12:00",0.0,13.8,59.4,1015.6,246.0,2.5,5.8,229.6,0.48,6.1,14.4,"11:58:56",1
"19/11/15","12:10",0.0,14.0,59.7,1015.6,231.6,2.6,4.4,222.5,0.50,6.3,14.7,"12:01:52",1
"19/11/15","12:20",0.0,14.2,58.4,1015.4,250.8,2.0,4.3,232.9,0.44,6.2,14.9,"12:13:52",1
"19/11/15","12:30",0.0,14.8,58.0,1015.4,247.2,1.6,3.9,231.4,0.48,6.7,15.1,"12:22:40",1
"19/11/15","12:40",0.0,15.1,55.8,1014.7,261.2,2.2,5.0,234.2,0.53,6.4,15.4,"12:38:08",1
"19/11/15","12:50",0.0,14.9,56.4,1014.7,233.1,2.2,3.9,204.0,0.47,6.4,15.5,"12:41:44",1
"19/11/15","13:00",0.0,14.9,55.9,1014.5,237.8,2.0,3.4,231.2,0.50,6.2,15.7,"12:56:24",1
"19/11/15","13:10",0.0,14.5,53.9,1014.5,267.6,2.1,4.2,230.7,0.23,5.3,15.9,"13:04:00",1
"19/11/15","13:20",0.0,14.8,53.8,1014.2,288.3,1.3,2.7,298.4,0.33,5.6,15.8,"13:13:12",1
"19/11/15","13:30",0.0,15.2,52.8,1014.0,281.3,1.8,4.8,345.0,0.38,5.7,16.0,"13:21:44",1
"19/11/15","13:40",0.0,15.1,52.7,1014.2,278.7,1.7,3.4,322.5,0.36,5.6,15.9,"13:34:40",1
"19/11/15","13:50",0.0,15.1,52.7,1013.8,237.2,2.0,5.0,228.1,0.38,5.6,16.3,"13:44:08",1
"19/11/15","14:00",0.0,15.3,52.6,1013.8,239.1,2.3,4.4,228.7,0.36,5.7,16.2,"13:52:00",1
"19/11/15","14:10",0.0,15.8,52.2,1013.8,279.4,1.6,3.9,337.5,0.35,6.1,16.4,"14:01:12",1
"19/11/15","14:20",0.0,15.9,51.4,1013.8,259.9,1.6,2.9,230.2,0.33,5.9,16.3,"14:16:24",1
"19/11/15","14:30",0.0,15.7,49.9,1013.8,247.4,1.8,4.1,235.4,0.31,5.3,16.3,"14:23:12",1
"19/11/15","14:40",0.0,15.7,49.7,1014.0,253.1,1.7,3.6,208.8,0.29,5.3,16.5,"14:38:00",1
"19/11/15","14:50",0.0,15.6,48.5,1014.0,248.4,2.0,4.0,212.3,0.27,4.8,16.3,"14:48:00",1
"19/11/15","15:00",0.0,16.0,48.5,1013.5,291.5,1.6,3.3,337.0,0.25,5.2,16.5,"14:54:48",1
"19/11/15","15:10",0.0,15.9,46.1,1013.5,271.8,1.7,2.8,233.7,0.22,4.4,16.1,"15:01:36",1
"19/11/15","15:20",0.0,15.8,46.9,1013.8,270.5,1.7,3.3,272.7,0.20,4.5,16.5,"15:10:32",1
"19/11/15","15:30",0.0,15.7,48.1,1013.8,282.5,1.6,3.9,234.9,0.18,4.8,16.3,"15:22:32",1
"19/11/15","15:40",0.0,15.7,48.5,1013.5,273.5,1.5,3.2,312.1,0.15,4.9,16.3,"15:38:32",1
"19/11/15","15:50",0.0,15.5,48.8,1013.8,256.8,1.5,3.1,255.2,0.13,4.8,16.2,"15:45:52",1
"19/11/15","16:00",0.0,15.2,49.0,1013.8,247.0,1.8,3.5,234.4,0.10,4.6,16.3,"15:52:56",1
"19/11/15","16:10",0.0,15.0,49.4,1013.8,266.0,1.8,3.7,261.5,0.08,4.5,16.2,"16:05:36",1
"19/11/15","16:20",0.0,14.8,51.0,1014.0,269.8,1.6,3.2,238.9,0.06,4.8,16.1,"16:16:56",1
"19/11/15","16:30",0.0,14.6,51.9,1014.2,274.0,1.6,3.3,237.1,0.04,4.9,16.2,"16:20:32",1
"19/11/15","16:40",0.0,14.3,52.6,1013.8,305.0,1.5,2.6,347.7,0.03,4.8,16.1,"16:34:24",1
"19/11/15","16:50",0.0,13.8,55.2,1013.8,304.5,1.1,1.9,323.0,0.00,5.0,15.7,"16:47:20",1
"19/11/15","17:00",0.0,13.1,57.7,1014.0,305.2,1.1,2.0,317.7,0.00,5.0,15.5,"16:53:20",1
"19/11/15","17:10",0.0,12.3,60.0,1013.8,303.6,1.1,1.7,298.6,0.00,4.8,15.5,"17:07:16",1
"19/11/15","17:20",0.0,11.5,63.8,1013.8,312.2,1.5,2.1,318.7,0.00,4.9,15.1,"17:15:14",1
"19/11/15","17:30",0.0,10.8,66.0,1013.5,298.3,1.1,2.1,310.6,0.00,4.7,15.1,"17:28:56",1
"19/11/15","17:40",0.0,10.3,67.8,1013.3,291.5,1.1,1.8,330.3,0.00,4.7,15.1,"17:38:24",1
"19/11/15","17:50",0.0,9.9,69.3,1013.5,286.6,1.2,2.5,313.5,0.00,4.6,14.9,"17:41:52",1
"19/11/15","18:00",0.0,9.6,70.5,1013.5,284.6,1.2,1.9,329.2,0.00,4.5,14.7,"17:56:56",1
"19/11/15","18:10",0.0,9.5,71.9,1013.8,308.3,2.0,3.4,322.9,0.00,4.7,14.7,"18:05:28",1
"19/11/15","18:20",0.0,9.7,72.5,1013.5,323.2,2.3,3.5,341.7,0.00,5.0,14.5,"18:11:36",1
"19/11/15","18:30",0.0,9.7,72.8,1014.0,312.9,2.1,3.9,335.2,0.00,5.1,14.5,"18:28:48",1
"19/11/15","18:40",0.0,9.5,73.3,1013.5,319.8,2.2,4.0,311.8,0.00,5.0,14.2,"18:30:40",1
"19/11/15","18:50",0.0,9.2,74.0,1013.5,319.8,2.0,3.7,325.7,0.00,4.9,14.1,"18:41:28",1
"19/11/15","19:00",0.0,8.7,74.7,1014.0,299.8,1.6,3.2,317.6,0.00,4.5,14.1,"18:53:28",1
"19/11/15","19:10",0.0,8.2,75.4,1013.8,294.6,1.0,2.5,317.7,0.00,4.2,13.9,"19:01:04",1
"19/11/15","19:20",0.0,7.5,76.1,1014.0,278.1,0.5,1.0,282.4,0.00,3.6,13.9,"19:12:08",1
"19/11/15","19:30",0.0,7.0,77.0,1014.0,303.4,1.3,2.0,315.3,0.00,3.3,13.7,"19:24:48",1
"19/11/15","19:40",0.0,6.7,78.4,1014.0,317.2,1.6,2.1,319.7,0.00,3.3,13.7,"19:32:00",1
"19/11/15","19:50",0.0,6.7,79.7,1014.2,293.7,1.6,2.7,304.2,0.00,3.5,13.4,"19:43:20",1
"19/11/15","20:00",0.0,7.2,81.7,1013.8,299.1,2.1,3.7,304.5,0.00,4.3,13.5,"19:54:24",1
"19/11/15","20:10",0.0,7.4,82.9,1013.8,326.5,2.5,3.3,339.5,0.00,4.7,13.3,"20:08:40",1
"19/11/15","20:20",0.0,7.4,83.5,1014.2,325.5,2.3,4.4,329.7,0.00,4.8,13.2,"20:11:20",1
"19/11/15","20:30",0.0,7.2,83.8,1014.2,303.3,1.7,2.4,285.1,0.00,4.7,13.0,"20:21:52",1
"19/11/15","20:40",0.0,6.9,84.2,1014.7,303.7,1.5,2.2,320.6,0.00,4.5,12.9,"20:35:44",1
"19/11/15","20:50",0.0,6.6,84.6,1014.5,300.5,1.6,2.4,325.8,0.00,4.2,13.1,"20:47:44",1
"19/11/15","21:00",0.0,6.8,85.0,1014.2,308.5,1.7,2.6,317.1,0.00,4.5,13.0,"20:54:24",1
"19/11/15","21:10",0.0,6.2,85.3,1014.2,298.1,1.6,2.4,317.1,0.00,4.0,12.8,"21:01:04",1
"19/11/15","21:20",0.0,5.8,85.7,1014.5,291.7,1.3,1.9,321.9,0.00,3.6,12.8,"21:13:02",1
"19/11/15","21:30",0.0,5.7,86.2,1014.2,293.8,1.2,2.0,315.3,0.00,3.6,12.7,"21:23:12",1
"19/11/15","21:40",0.0,5.7,86.7,1014.2,305.7,1.3,1.9,337.1,0.00,3.7,12.6,"21:32:38",1
"19/11/15","21:50",0.0,5.9,86.9,1014.2,277.2,1.5,1.8,283.8,0.00,3.9,12.5,"21:41:56",1
"19/11/15","22:00",0.0,5.7,87.3,1014.0,294.4,1.2,1.6,310.8,0.00,3.8,12.5,"21:50:08",1
"19/11/15","22:10",0.0,5.7,87.6,1013.8,319.1,1.2,2.2,307.2,0.00,3.8,12.3,"22:02:14",1
"19/11/15","22:20",0.0,5.7,88.0,1014.0,313.4,1.3,2.0,301.3,0.00,3.9,12.4,"22:11:36",1
"19/11/15","22:30",0.0,5.6,88.2,1014.5,302.0,1.6,2.2,324.7,0.00,3.8,12.3,"22:26:06",1
"19/11/15","22:40",0.0,5.2,88.5,1014.2,309.2,1.3,1.6,320.9,0.00,3.5,12.2,"22:33:32",1
"19/11/15","22:50",0.0,5.0,88.8,1013.5,337.8,0.1,0.8,301.7,0.00,3.3,11.9,"22:48:06",1
"19/11/15","23:00",0.0,4.7,89.1,1013.5,297.1,1.0,1.1,295.1,0.00,3.1,11.9,"22:52:18",1
"19/11/15","23:10",0.0,4.3,89.5,1013.5,297.4,1.5,2.2,331.1,0.00,2.8,12.0,"23:05:46",1
"19/11/15","23:20",0.0,4.6,90.0,1013.5,294.3,1.6,2.8,318.4,0.00,3.1,11.8,"23:10:02",1
"19/11/15","23:30",0.0,5.1,90.0,1013.8,295.3,1.5,2.1,315.4,0.00,3.6,11.8,"23:20:12",1
"19/11/15","23:40",0.0,5.0,90.2,1013.8,309.8,1.2,1.7,325.7,0.00,3.6,11.8,"23:34:34",1
"19/11/15","23:50",0.0,4.7,90.4,1013.3,321.4,1.2,1.9,318.6,0.00,3.3,11.7,"23:40:42",1
"19/11/15","24:00",0.0,4.5,90.7,1013.5,300.6,0.8,1.2,309.7,0.00,3.2,11.6,"23:54:08",1
